Flag for U.S.A. Weather past 2 weeks in Boston, Massachusetts, U.S.A.

Now
46 °F

Clear.


Feels Like: 39 °F
Forecast: 44 / 54 °F
Wind: 17 mph from Northwest

Location: Logan International Airport

Current Time: Apr 19, 2015 at 4:09:50 AM

Latest Report: Apr 19, 2015 at 2:54 AM


Visibility: 10 mi

Pressure: 30.12 "Hg

Humidity: 58%

Dew point: 32 °F

Location of BostonLocation

Historic Weather in Boston — Graph

°F

Boston temperature yesterday

Maximum temperature yesterday: 59 °F (at 8:54 AM)
Minimum temperature yesterday: 43 °F (at 10:54 PM)
Average temperature yesterday: 51 °F

Past Weeks' High & Low Weather Summary

 TemperatureHumidityPressure
High69 °F (Apr 13, 12:54 PM)100% (Apr 4, 2:54 AM)30.50 "Hg (Apr 4, 2:54 AM)
Low32 °F (Apr 5, 4:54 AM)16% (Apr 15, 12:54 PM)29.41 "Hg (Apr 4, 6:04 AM)
Average47 °F63%30.13 "Hg
* Reported Apr 4 2:54 AM — Apr 19 2:54 AM, Boston, Weather by CustomWeather, © 2015

Note: Actual official high and low records may vary slightly from our data, if they occured in-between our weather recording intervals... More about our weather records

Advertising

Boston weather history for previous 24 hours

 ConditionsComfort  
Time TempWeatherWind HumidityBarometerVisibility
2:54 AM
Sun, Apr 19
46 °FClear.17 mph58%30.12 "Hg10 mi
1:54 AM47 °FClear.15 mph61%30.11 "Hg10 mi
12:54 AM45 °FClear.3 mph76%30.09 "Hg10 mi
11:54 PM
Sat, Apr 18
44 °FClear.3 mph82%30.09 "Hg10 mi
10:54 PM43 °FClear.8 mph86%30.06 "Hg10 mi
9:54 PM45 °FClear.6 mph82%30.03 "Hg10 mi
8:54 PM44 °FClear.5 mph89%30.00 "Hg10 mi
7:54 PM47 °FPassing clouds.5 mph77%29.96 "Hg10 mi
6:54 PM51 °FScattered clouds.13 mph69%29.92 "Hg10 mi
5:54 PM46 °FScattered clouds.5 mph83%29.83 "Hg10 mi
4:54 PM47 °FScattered clouds.8 mph80%29.83 "Hg10 mi
3:54 PM47 °FScattered clouds.10 mph80%29.85 "Hg10 mi
2:54 PM47 °FPartly sunny.10 mph77%29.88 "Hg10 mi
1:54 PM50 °FPassing clouds.15 mph68%29.90 "Hg10 mi
12:54 PM51 °FSunny.13 mph66%29.92 "Hg10 mi
11:54 AM53 °FSunny.16 mph59%29.95 "Hg10 mi
10:54 AM57 °FSunny.16 mph49%29.96 "Hg10 mi
9:54 AM58 °FSunny.8 mph58%29.96 "Hg10 mi
8:54 AM59 °FSunny.6 mph58%29.94 "Hg10 mi
7:54 AM56 °FSunny.5 mph65%29.94 "Hg10 mi
6:54 AM53 °FClear.8 mph69%29.94 "Hg10 mi
5:54 AM52 °FClear.8 mph72%29.92 "Hg10 mi
4:54 AM51 °FClear.5 mph77%29.91 "Hg10 mi
Weather by CustomWeather, © 2015

See weather overviewHow to use our weather pages